Regional Weather Roundup
Issued by NWS Northern Indiana

Home | Current Version | Previous Version | Text Only | Print | Product List | Glossary On
Versions: 1 2 3 4 5 6 7 8 9 10 11 12 13 14 15 16 17 18 19 20 21 22 23 24 25 26 27 28 29 30 31 32 33 34 35 36 37 38 39 40 41 42 43 44 45 46 47 48 49 50
000
ASUS43 KIWX 231610
RWRIWX

KIWX WEATHER ROUNDUP
NATIONAL WEATHER SERVICE NORTHERN INDIANA
1100 AM EST TUE JAN 23 2018

NOTE: "FAIR" INDICATES FEW OR NO CLOUDS BELOW 12,000 FEET WITH NO
SIGNIFICANT WEATHER AND/OR OBSTRUCTIONS TO VISIBILITY.

* THESE STATIONS ARE NOT UNDER NWS QUALITY CONTROL. THEY ALSO MAY NOT
  REPORT WEATHER SUCH AS PRECIPITATION OR FOG.

INZ001>027-231700-
NORTHERN INDIANA

CITY           SKY/WX    TMP DP  RH WIND       PRES   REMARKS
GARY*          CLOUDY    34  28  80 W12G23    29.79R WCI  25
VALPARAISO     CLOUDY    33  28  81 NW13G21   29.77R WCI  24
MICHIGAN CITY* MIX PCPN  32  30  93 NW10G16   29.77R WCI  24
LAPORTE*       CLOUDY    31  28  90 NW13G18   29.75R WCI  21
KNOX*          CLOUDY    32  32 100 W12G17    29.74R WCI  23
SOUTH BEND     LGT SNOW  31  29  92 NW12      29.73R WCI  22
ELKHART*       LGT SNOW  32  30  93 W10       29.70R WCI  24
GOSHEN         LGT SNOW  34  31  88 NW16G26   29.70R FOG     WCI  24
MONTICELLO*    CLOUDY    34  31  91 NW17G24   29.77R WCI  23
LOGANSPORT*    CLOUDY    34  32  93 W17G28    29.76R WCI  23
ROCHESTER*     LGT SNOW  36  34  93 NW15G22   29.74R
WARSAW*        LGT SNOW  32  32 100 W14G20    29.71R WCI  22
AUBURN*        RAIN     N/A N/A N/A SW12G18   29.67R
FORT WAYNE     LGT SNOW  36  34  92 SW20      29.70R FOG
HUNTINGTON*    LGT RAIN  34  33  96 W17       29.72R WCI  23
PERU/GRISSOM   CLOUDY    35  35 100 W18G28    29.74R WCI  24
MARION*        CLOUDY    34  32  93 W23G29    29.76R WCI  22

$$
INZ028>050-231700-
CENTRAL INDIANA

CITY           SKY/WX    TMP DP  RH WIND       PRES   REMARKS
LAFAYETTE      CLOUDY    35  34  96 W21       29.79R WCI  24
MUNCIE*        CLOUDY    37  31  78 W20G26    29.76R
INDIANAPOLIS   DRIZZLE   35  33  92 SW16      29.82R FOG     WCI  25

$$
MIZ043>046-050>051-056>058-064>065-071>073-077>080-231700-
SOUTHWEST LOWER MICHIGAN

CITY           SKY/WX    TMP DP  RH WIND       PRES   REMARKS
BATTLE CREEK   CLOUDY    33  29  85 W21G28    29.61R WCI  21
BENTON HARBOR  LGT SNOW  32  28  85 NW14G23   29.72R VSB 1   WCI  22
COLDWATER*     CLOUDY    33  33  99 W16       29.63R WCI  23
HILLSDALE*     CLOUDY    34  32  93 SW15G25   29.58R WCI  24
HOLLAND        LGT SNOW  31  27  85 NW17G28   29.66R FOG     WCI  19
GRAND RAPIDS   LGT SNOW  31  28  89 W21G30    29.58R VSB 1   WCI  18
KALAMAZOO      LGT SNOW  33  29  85 W16G25    29.64R FOG     WCI  23
STURGIS*       CLOUDY    34  31  88 NW10G21   29.65R WCI  26
THREE RIVERS*  LGT SNOW  34  31  89 W15G21    29.67R WCI  24

$$
OHZ001>008-015>018-024>025-231700-
NORTHWEST OHIO

CITY           SKY/WX    TMP DP  RH WIND       PRES   REMARKS
WAUSEON*       CLOUDY    37  37 100 SW17G28   29.62R
DEFIANCE       LGT RAIN  38  33  82 SW15G23   29.66R
FINDLAY        CLOUDY    38  32  79 SW21G29   29.67R
TOLEDO EXPRESS CLOUDY    39  35  86 SW16G26   29.62R
TOLEDO METCALF PTSUNNY   40  34  79 SW22G29   29.64R

$$
AND FOR LAKE MICHIGAN COASTAL AND OPEN LAKE BUOY OBSERVATIONS

STATION/POSITION TEMP    WIND        PRES    VSBY  WAVE
                 AIR SEA DIR/SP/G                  HT/PER
                 (F)     (DEG/KT/KT) (MB)    (MI)  (FT/S)
CALUMET HARBOR    32     270/ 11/ 18 1008.0R
MICHIGAN CITY     30     300/ 22/ 27   N/A
BURNS HARBOR      31     310/ 14/ 19 1008.5R
SAINT JOSEPH      32     320/ 18/ 23 1007.8

$$
&&




USA.gov is the U.S. government's official web portal to all federal, state and local government web resources and services.